Location: Biharia
(46.4333°N, 22.8000°E)
Time: 18:07:10
(UTC+00:00)

FENGYUN 1C DEB - Pass Details

Date: 12 August 2022
Orbit: 796 x 915 km, 98.9° (Epoch: 24 September)

Event Time Altitude Azimuth Distance (km) Brightness Sun altitude
Rises 22:47:29 0° 20° (NNE) 3,450 ? -28.7°
Reaches altitude 10° 22:50:01 10° 27° (NNE) 2,490 ? -28.7°
Enters shadow 22:54:57 43° 89° (E) 1,159 ? -28.6°
